(458997) = 2011 WC134

Discovered at Kitt Peak on 2011-11-17 by Spacewatch.

Orbit

Orbit type: Main Belt

Note: WebGL enabled browser required.

epoch2024-03-31.0
epoch JD2460400.5
perihelion date2021-06-18.80544
perihelion JD2459384.30544
argument of perihelion (°)268.90650
ascending node (°)70.37000
inclination (°)7.13509
eccentricity0.1703002
perihelion distance (AU)1.8839926
Tisserand w.r.t. Jupiter3.6
ΔV w.r.t. Earth (km/sec)8.8
semimajor axis (AU)2.2706919
mean anomaly (°)292.71393
mean daily motion (°/day)0.28804910
aphelion distance (AU)2.657
period (years)3.42
P-vector [x]0.92800642
P-vector [y]-0.27287379
P-vector [z]-0.25366116
Q-vector [x]0.35371929
Q-vector [y]0.85910848
Q-vector [z]0.36988551
absolute magnitude17.95
phase slope0.15
uncertainty0
referenceMPEC 2024-E23
observations used189
oppositions9
arc length (days)6233
first opposition used2004
last opposition used2021
residual rms (arc-secs)0.58
perturbers coarse indicatorM-v
perturbers precise indicator003Ek
first observation date used2004-11-03.0
last observation date used2021-11-27.0
computer nameMPCLINUX
JD of orbit computation2457424.218963
perihelion JD uncertainty (days)2.3758E-05
argument of perihelion uncertainty (°)2.4592E-05
ascending node uncertainty (°)2.3247E-05
inclination uncertainty (°)2.2866E-06
eccentricity uncertainty 4.1885E-08
perihelion distance uncertainty (AU)1.0058E-07
Minimum Orbit Intersection Distances (in AU)
for orbit epoch: 2460400.5, reference: E2024-E23
Mercury1.48321
Venus1.15889
Earth0.89154
Mars0.52477
Jupiter2.73001
Saturn6.56954
Uranus15.8023
Neptune27.6385

Observations

197 total observations over interval: 2004 11 03.30798 – 2021 11 27.333877
These data are available for download (format description).

Date (UT) J2000 RA J2000 Dec Magn Location Ref
2004 11 03.30798 03 28 58.56 +13 25 55.4 20.2 V 691 – Steward Observatory, Kitt Peak-Spacewatch MPS 528205
2004 11 03.33525 03 28 56.66 +13 25 55.5 20.5 V 691 – Steward Observatory, Kitt Peak-Spacewatch MPS 528205
2004 11 03.36307 03 28 54.71 +13 25 55.7 20.5 V 691 – Steward Observatory, Kitt Peak-Spacewatch MPS 528205
2010 05 11.28400 15 23 04.59 -14 16 09.1 20.6 V G96 – Mt. Lemmon Survey MPS 528205
2010 05 11.29048 15 23 04.16 -14 16 09.0 20.5 V G96 – Mt. Lemmon Survey MPS 528205
2010 05 11.29699 15 23 03.69 -14 16 08.1 20.2 V G96 – Mt. Lemmon Survey MPS 528205
2011 11 17.26279 05 24 45.59 +23 04 32.3 20.7 V 691 – Steward Observatory, Kitt Peak-Spacewatch MPS 403968
2011 11 17.28056 05 24 44.59 +23 04 35.8 20.7 V 691 – Steward Observatory, Kitt Peak-Spacewatch MPS 403968
2011 11 17.29834 05 24 43.56 +23 04 39.0 21.5 V 691 – Steward Observatory, Kitt Peak-Spacewatch MPS 403968
2011 11 17.41171 05 24 36.97 +23 05 00.0 20.4 V G96 – Mt. Lemmon Survey MPS 403968
2011 11 17.41874 05 24 36.54 +23 05 01.2 20.4 V G96 – Mt. Lemmon Survey MPS 403968
2011 11 17.42579 05 24 36.10 +23 05 02.7 20.2 V G96 – Mt. Lemmon Survey MPS 403968
2011 11 17.43278 05 24 35.71 +23 05 03.8 20.2 V G96 – Mt. Lemmon Survey MPS 403968
2011 11 25.54998 05 16 06.672 +23 28 44.26 20.7 g F51 – Pan-STARRS 1, Haleakala MPS 403968
2011 11 25.56522 05 16 05.582 +23 28 46.78 20.9 g F51 – Pan-STARRS 1, Haleakala MPS 403968
2011 11 25.58074 05 16 04.478 +23 28 48.99 20.6 r F51 – Pan-STARRS 1, Haleakala MPS 403968
2011 11 25.59532 05 16 03.450 +23 28 51.17 20.5 r F51 – Pan-STARRS 1, Haleakala MPS 403968
2011 12 06.54797 05 02 44.424 +23 55 44.68 20.2 i F51 – Pan-STARRS 1, Haleakala MPS 403968
2011 12 06.56088 05 02 43.431 +23 55 46.27 20.2 i F51 – Pan-STARRS 1, Haleakala MPS 403968
2011 12 06.57502 05 02 42.341 +23 55 47.72 20.2 r F51 – Pan-STARRS 1, Haleakala MPS 403968
2011 12 06.58682 05 02 41.422 +23 55 49.16 20.6 r F51 – Pan-STARRS 1, Haleakala MPS 403968
2011 12 25.18007 04 41 07.80 +24 25 44.6 20.4 V G96 – Mt. Lemmon Survey MPS 404757
2011 12 25.18755 04 41 07.33 +24 25 45.1 20.2 V G96 – Mt. Lemmon Survey MPS 404757
2011 12 25.19502 04 41 06.86 +24 25 45.9 20.3 V G96 – Mt. Lemmon Survey MPS 404757
2011 12 25.20251 04 41 06.43 +24 25 46.4 20.2 V G96 – Mt. Lemmon Survey MPS 404757
2013 04 06.32463 12 16 44.399 +09 22 33.64 21.5 w F51 – Pan-STARRS 1, Haleakala MPS 528205
2013 04 06.33842 12 16 43.556 +09 22 36.69 21.7 w F51 – Pan-STARRS 1, Haleakala MPS 528205
2013 04 06.35220 12 16 42.745 +09 22 40.24 21.5 w F51 – Pan-STARRS 1, Haleakala MPS 528205
2014 08 22.52926 00 11 35.444 -14 26 40.31 19.9 w F51 – Pan-STARRS 1, Haleakala MPS 528205
2014 08 22.54041 00 11 35.150 -14 26 44.59 19.7 w F51 – Pan-STARRS 1, Haleakala MPS 528205
2014 08 22.55160 00 11 34.862 -14 26 48.91 19.7 w F51 – Pan-STARRS 1, Haleakala MPS 528205
2014 08 22.56282 00 11 34.572 -14 26 53.21 19.7 w F51 – Pan-STARRS 1, Haleakala MPS 528205
2014 08 23.53189 00 11 12.141 -14 33 08.59 19.9 w F51 – Pan-STARRS 1, Haleakala MPS 528205
2014 08 23.54463 00 11 11.783 -14 33 13.51 19.8 w F51 – Pan-STARRS 1, Haleakala MPS 528205
2014 08 23.55736 00 11 11.428 -14 33 18.38 19.8 w F51 – Pan-STARRS 1, Haleakala MPS 528205
2014 08 23.57007 00 11 11.069 -14 33 23.32 19.9 w F51 – Pan-STARRS 1, Haleakala MPS 528205
2014 09 17.41391 23 52 54.459 -16 52 22.46 19.6 w F51 – Pan-STARRS 1, Haleakala MPS 531548
2014 09 17.42515 23 52 53.786 -16 52 24.83 19.6 w F51 – Pan-STARRS 1, Haleakala MPS 531548
2014 10 02.21943 23 39 48.56 -17 11 27.7 20.0 V 703 – Catalina Sky Survey MPS 536728
2014 10 02.24289 23 39 47.34 -17 11 27.6 19.3 V 703 – Catalina Sky Survey MPS 536728
2014 10 02.25461 23 39 46.77 -17 11 27.7 19.3 V 703 – Catalina Sky Survey MPS 536728
2014 10 27.30365 23 29 25.041 -15 13 20.43 20.6 w F51 – Pan-STARRS 1, Haleakala MPS 542332
2014 10 27.31551 23 29 25.005 -15 13 14.71 20.4 w F51 – Pan-STARRS 1, Haleakala MPS 542332
2014 10 27.32737 23 29 24.983 -15 13 09.10 21.0 w F51 – Pan-STARRS 1, Haleakala MPS 542332
2014 10 27.33921 23 29 24.945 -15 13 03.49 20.4 w F51 – Pan-STARRS 1, Haleakala MPS 542332
2014 11 12.20998 23 33 33.545 -12 44 31.59 20.8 w F51 – Pan-STARRS 1, Haleakala MPS 544855
2014 11 12.22119 23 33 33.867 -12 44 24.41 20.8 w F51 – Pan-STARRS 1, Haleakala MPS 544855
2014 11 12.23239 23 33 34.163 -12 44 17.33 21.2 w F51 – Pan-STARRS 1, Haleakala MPS 544855
2014 11 12.24360 23 33 34.472 -12 44 10.48 21.0 w F51 – Pan-STARRS 1, Haleakala MPS 544855
2014 11 22.20951 23 39 57.581 -10 52 43.39 21.1 w F51 – Pan-STARRS 1, Haleakala MPS 547790
2014 11 22.21215 23 39 57.704 -10 52 41.60 21.1 w F51 – Pan-STARRS 1, Haleakala MPS 547790
2014 11 22.22012 23 39 58.055 -10 52 36.12 21.1 w F51 – Pan-STARRS 1, Haleakala MPS 547790
2014 11 22.22275 23 39 58.176 -10 52 34.22 20.9 w F51 – Pan-STARRS 1, Haleakala MPS 547790
2014 11 22.23337 23 39 58.618 -10 52 26.67 21.2 w F51 – Pan-STARRS 1, Haleakala MPS 547790
2014 11 22.24137 23 39 58.986 -10 52 21.15 21.4 w F51 – Pan-STARRS 1, Haleakala MPS 547790
2014 11 22.24401 23 39 59.078 -10 52 19.14 21.5 w F51 – Pan-STARRS 1, Haleakala MPS 547790
2016 02 03.41104 10 04 16.238 +23 12 04.98 21.5 w F51 – Pan-STARRS 1, Haleakala MPS 675349
2016 02 03.42288 10 04 15.485 +23 12 10.25 21.7 w F51 – Pan-STARRS 1, Haleakala MPS 675349
2016 02 03.44666 10 04 14.026 +23 12 20.35 21.5 w F51 – Pan-STARRS 1, Haleakala MPS 675349
2016 02 05.38585 10 02 16.527 +23 26 04.01 21.6 w F51 – Pan-STARRS 1, Haleakala MPS 679167
2016 02 05.39882 10 02 15.681 +23 26 09.95 21.5 w F51 – Pan-STARRS 1, Haleakala MPS 679167
2016 02 05.41183 10 02 14.853 +23 26 15.33 21.5 w F51 – Pan-STARRS 1, Haleakala MPS 679167
2017 06 20.35849 16 40 48.023 -24 26 46.02 20.3 w F51 – Pan-STARRS 1, Haleakala MPS 802425
2017 06 20.38071 16 40 46.519 -24 26 48.82 20.6 w F51 – Pan-STARRS 1, Haleakala MPS 802425
2017 06 20.39180 16 40 45.772 -24 26 50.23 20.4 w F51 – Pan-STARRS 1, Haleakala MPS 802425
2020 04 02.33127 13 35 05.71 -00 00 26.1 20.1 G G96 – Mt. Lemmon Survey MPS 1171933
2020 04 02.33773 13 35 05.39 -00 00 24.6 21.9 G G96 – Mt. Lemmon Survey MPS 1171933
2020 04 02.34804 13 35 04.69 -00 00 21.3 21.3 G G96 – Mt. Lemmon Survey MPS 1171933
2020 04 15.26549 13 22 03.99 +00 58 41.5   G96 – Mt. Lemmon Survey MPS 1175316
2020 04 15.27109 13 22 03.68 +00 58 42.4 21.4 G G96 – Mt. Lemmon Survey MPS 1175316
2020 04 15.27670 13 22 03.39 +00 58 44.3 21.3 G G96 – Mt. Lemmon Survey MPS 1175316
2020 04 15.28230 13 22 02.97 +00 58 45.4 21.1 G G96 – Mt. Lemmon Survey MPS 1175316
2020 04 21.39165 13 15 50.899 +01 20 49.97 21.4 w F52 – Pan-STARRS 2, Haleakala MPS 1184885
2020 04 21.42086 13 15 49.102 +01 20 55.48 21.3 w F52 – Pan-STARRS 2, Haleakala MPS 1184885
2020 04 21.43552 13 15 48.175 +01 20 58.41 21.4 w F52 – Pan-STARRS 2, Haleakala MPS 1184885
2020 04 22.69036 13 14 33.75 +01 24 50.4 21.6 R D29 – Purple Mountain Observatory, XuYi Station MPS 1184885
2020 04 22.70362 13 14 33.02 +01 24 55.3 21.6 R D29 – Purple Mountain Observatory, XuYi Station MPS 1410573
2020 04 23.60736 13 13 40.22 +01 27 30.5 21.3 R D29 – Purple Mountain Observatory, XuYi Station MPS 1184885
2020 04 23.62150 13 13 39.31 +01 27 32.3 22.0 R D29 – Purple Mountain Observatory, XuYi Station MPS 1184885
2020 04 27.40129 13 10 04.575 +01 37 07.99 21.3 w F52 – Pan-STARRS 2, Haleakala MPS 1184885
2020 04 27.41250 13 10 03.920 +01 37 09.21 21.4 w F52 – Pan-STARRS 2, Haleakala MPS 1184885
2020 04 27.42368 13 10 03.282 +01 37 10.60 21.2 w F52 – Pan-STARRS 2, Haleakala MPS 1184885
2020 04 27.43490 13 10 02.622 +01 37 12.13 21.6 w F52 – Pan-STARRS 2, Haleakala MPS 1184885
2020 05 25.27142 12 52 55.609 +01 27 10.32 21.3 w F52 – Pan-STARRS 2, Haleakala MPS 1199423
2020 05 25.29525 12 52 55.207 +01 27 06.15 21.8 w F52 – Pan-STARRS 2, Haleakala MPS 1199423
2020 05 25.30712 12 52 54.991 +01 27 04.01 21.8 w F52 – Pan-STARRS 2, Haleakala MPS 1199423
2021 09 09.594918 02 31 11.729 +03 59 22.44 20.78 w F52 – Pan-STARRS 2, Haleakala MPS 1470090
2021 09 09.603247 02 31 11.754 +03 59 22.02 20.54 w F52 – Pan-STARRS 2, Haleakala MPS 1470090
2021 09 09.611579 02 31 11.779 +03 59 21.60 20.46 w F52 – Pan-STARRS 2, Haleakala MPS 1470090
